Weather History for Wink, TX

Change the Weather History Date:

Saturday, May 12, 2012

  Actual Average Record
Temperature  
Mean Temperature 64 °F -  
Max Temperature 75 °F 87 °F 104 °F (1961)
Min Temperature 54 °F 56 °F 46 °F (1942)
Growing Degree Days 14 (Base 50)    
Moisture  
Dew Point 50 °F    
Average Humidity 66    
Maximum Humidity 90    
Minimum Humidity 38    
Precipitation  
Precipitation 0.00 in - - ()
Sea Level Pressure  
Sea Level Pressure 30.15 in    
Wind  
Wind Speed 7 mph (NE)    
Max Wind Speed 10 mph    
Max Gust Speed -    
Visibility 10 miles    
Events      
Averages and records for this station are not official NWS values.
T = Trace of Precipitation, MM = Missing Value Source: NWS Daily Summary

Daily Weather History Graph

Daily Weather History Graph

Search for Another Location

Airport:

Trip Planner

Search our weather history database for the weather conditions in past years. The results will help you decide how hot, cold, wet, or windy it might be!

Date:

Astronomy

May. 12, 2012 Rise Set
Actual Time 6:57 AM CDT 8:41 PM CDT
Civil Twilight 6:31 AM CDT 9:07 PM CDT
Nautical Twilight 5:58 AM CDT 9:39 PM CDT
Astronomical Twilight 5:25 AM CDT 10:13 PM CDT
Moon 2:03 AM CDT (5/12) 1:30 PM CDT (5/12)
Length of Visible Light 14h 36m
Length of Day
13h 43m
Waning Gibbous, 52% of the Moon is Illuminated
May 12
Waning Gibbous
May 12
Last Quarter
May 20
New
May 28
First Quarter
Jun 4
Full

Hourly Weather History & Observations

Time (CDT) Temp. Dew Point Humidity Pressure Visibility Wind Dir Wind Speed Gust Speed Precip Events Conditions
12:53 AM 59.0 °F 51.1 °F 75% 30.06 in 10.0 mi NNE 9.2 mph - N/A   Clear
1:53 AM 57.0 °F 52.0 °F 83% 30.09 in 10.0 mi North 5.8 mph - N/A   Clear
2:53 AM 55.9 °F 52.0 °F 87% 30.08 in 10.0 mi NW 5.8 mph - N/A   Clear
3:53 AM 55.0 °F 52.0 °F 89% 30.07 in 10.0 mi NNE 5.8 mph - N/A   Clear
4:53 AM 54.0 °F 51.1 °F 90% 30.09 in 10.0 mi North 10.4 mph - N/A   Clear
5:15 AM 55.4 °F 51.8 °F 88% 30.19 in 10.0 mi NNE 8.1 mph - N/A   Mostly Cloudy
5:53 AM 55.9 °F 51.1 °F 84% 30.12 in 10.0 mi NNE 9.2 mph - N/A   Overcast
6:53 AM 55.9 °F 51.1 °F 84% 30.13 in 10.0 mi North 6.9 mph - N/A   Overcast
7:28 AM 55.4 °F 51.8 °F 88% 30.23 in 10.0 mi North 5.8 mph - N/A   Scattered Clouds
7:53 AM 55.0 °F 51.1 °F 86% 30.16 in 10.0 mi North 8.1 mph - N/A   Partly Cloudy
8:06 AM 55.4 °F 51.8 °F 88% 30.26 in 10.0 mi North 10.4 mph - N/A   Mostly Cloudy
8:53 AM 57.0 °F 50.0 °F 77% 30.19 in 10.0 mi NNE 10.4 mph - N/A   Overcast
9:53 AM 57.9 °F 50.0 °F 75% 30.22 in 10.0 mi NE 9.2 mph - N/A   Overcast
10:53 AM 60.1 °F 48.9 °F 67% 30.22 in 10.0 mi ENE 5.8 mph - N/A   Overcast
11:48 AM 64.4 °F 48.2 °F 56% 30.29 in 10.0 mi NNE 5.8 mph - N/A   Mostly Cloudy
11:53 AM 63.0 °F 48.9 °F 60% 30.21 in 10.0 mi North 5.8 mph - N/A   Mostly Cloudy
12:53 PM 68.0 °F 48.9 °F 50% 30.20 in 10.0 mi NE 9.2 mph - N/A   Scattered Clouds
1:53 PM 69.1 °F 48.9 °F 49% 30.18 in 10.0 mi Variable 5.8 mph - N/A   Partly Cloudy
2:53 PM 72.0 °F 48.9 °F 44% 30.16 in 10.0 mi Variable 4.6 mph - N/A   Clear
3:53 PM 73.0 °F 48.0 °F 41% 30.13 in 10.0 mi ENE 6.9 mph - N/A   Clear
4:53 PM 73.9 °F 46.9 °F 38% 30.11 in 10.0 mi Calm Calm - N/A   Clear
5:53 PM 75.0 °F 48.0 °F 38% 30.07 in 10.0 mi ESE 9.2 mph - N/A   Clear
6:53 PM 75.0 °F 48.0 °F 38% 30.06 in 10.0 mi East 6.9 mph - N/A   Clear
7:53 PM 73.9 °F 48.9 °F 41% 30.06 in 10.0 mi ESE 5.8 mph - N/A   Clear
8:53 PM 71.1 °F 50.0 °F 47% 30.09 in 10.0 mi East 6.9 mph - N/A   Clear
9:53 PM 68.0 °F 51.1 °F 55% 30.12 in 10.0 mi East 6.9 mph - N/A   Clear
10:53 PM 66.9 °F 51.1 °F 57% 30.15 in 10.0 mi East 8.1 mph - N/A   Clear
11:53 PM 64.0 °F 52.0 °F 65% 30.17 in 10.0 mi East 6.9 mph - N/A   Clear